Wind_Speed
23 22 22 23 23 24 24 24 25 24 25 26 27 28 29 30 30 30 31 32 33 34 36 38 39 39 40 40 41 41 42 42 42 42 42 42 43 43
22 21 22 22 22 23 23 23 24 24 24 25 25 26 28 29 30 29 30 30 32 33 35 36 37 39 40 40 41 41 41 43 43 42 42 43 42 42
20 20 21 21 22 22 21 21 22 22 22 23 24 25 27 28 27 27 27 28 30 31 33 35 36 38 39 41 41 41 41 42 43 43 43 44 43 44
20 20 21 21 21 21 20 21 21 21 22 22 23 25 25 26 25 26 27 28 29 30 31 32 33 36 38 39 40 41 41 42 43 45 45 44 44 45
19 20 20 20 20 20 20 20 20 21 21 21 22 24 24 24 24 26 27 28 28 29 30 31 32 33 36 37 38 39 40 41 42 44 44 45 45 45
18 19 20 20 20 20 19 19 19 20 20 21 21 22 22 23 23 25 26 26 27 29 30 30 31 32 34 36 37 39 40 42 42 44 45 45 46 46
19 20 20 20 20 19 18 18 19 19 19 20 20 20 21 22 22 24 25 26 27 29 30 30 31 32 34 35 37 39 39 41 42 44 45 45 46 46
20 20 20 20 20 19 18 18 18 19 19 20 21 21 22 22 23 23 24 25 25 26 27 28 29 31 33 35 36 37 38 39 41 43 44 44 45 46
20 21 20 19 19 18 18 18 18 18 19 20 21 22 22 23 23 23 24 24 25 26 28 28 29 29 31 33 35 37 38 38 40 41 42 43 44 45
21 21 21 20 19 19 18 19 18 18 20 21 21 21 21 21 22 23 24 24 25 27 29 29 29 29 29 32 34 36 37 38 40 41 42 43 44 45
21 21 21 22 21 20 20 20 19 19 20 21 21 21 21 22 23 23 24 24 25 26 27 28 28 29 30 30 33 35 37 38 39 40 42 43 44 45
21 22 22 22 21 21 20 20 19 19 20 21 21 22 23 23 24 24 24 24 25 26 26 27 28 29 30 30 31 33 35 36 38 39 42 43 44 45
22 22 22 22 21 21 21 20 20 20 20 21 22 22 23 23 24 24 24 24 25 26 26 26 27 28 30 30 31 32 33 35 37 38 39 40 42 43
22 23 22 22 22 22 22 22 21 21 21 21 22 22 22 23 23 23 24 23 24 25 25 25 26 27 28 28 29 30 30 31 33 35 37 38 40 41
23 23 23 22 22 23 23 23 23 22 22 22 23 23 23 22 23 23 23 23 23 23 23 24 24 25 25 26 27 28 29 29 31 32 34 36 38 39
23 23 23 23 23 24 24 24 24 23 23 23 23 23 22 22 22 22 22 21 21 21 22 23 23 23 23 23 24 26 27 28 29 30 32 34 35 36
23 23 24 24 24 24 24 25 25 25 24 23 23 22 21 20 21 21 20 20 20 20 21 22 22 22 21 21 22 23 25 27 27 28 29 29 30 32
23 24 24 25 25 25 25 26 25 25 24 23 23 22 21 20 20 20 20 20 19 19 19 19 20 20 20 20 20 20 21 22 24 25 27 27 28 29
24 25 25 26 26 26 26 26 25 25 25 25 24 23 22 21 21 20 20 20 19 19 18 18 18 18 18 17 18 19 19 19 21 23 24 25 26 26
25 25 26 27 27 26 26 26 26 26 25 25 24 23 22 21 21 21 20 19 18 18 17 17 17 16 16 16 17 18 19 19 20 21 21 22 23 24
25 26 27 27 27 26 26 26 26 26 25 25 25 24 23 21 21 20 19 19 18 18 17 17 16 16 15 15 16 16 17 18 19 20 20 21 22 23
25 27 27 27 27 27 27 27 26 25 25 25 25 24 23 22 21 20 19 18 17 16 15 15 15 15 14 14 14 14 15 16 17 18 19 20 20 20
26 27 27 27 27 27 28 27 27 26 26 25 25 24 23 22 21 20 19 18 17 16 14 14 14 14 13 13 12 12 13 13 13 14 15 16 17 18
Wind_Direction
293 290 287 284 282 280 279 278 278 277 276 274 273 272 269 268 266 264 261 258 256 254 252 249 248 247 247 247 245 244 243 242 242 241 240 240 240 240
296 293 290 287 285 284 281 280 280 277 277 276 275 273 271 270 267 265 262 258 256 254 253 251 250 247 247 246 245 244 243 243 242 241 241 240 240 240
302 299 295 292 288 287 284 282 282 281 280 279 279 277 275 271 267 264 261 259 258 257 256 255 252 249 247 246 245 244 243 243 241 240 241 241 240 240
306 303 300 298 293 290 287 284 284 284 284 281 281 280 278 274 267 264 263 261 260 260 259 256 255 251 247 245 244 244 243 243 242 241 241 242 241 241
312 310 308 303 299 295 292 289 287 284 283 283 283 282 280 275 269 266 265 263 261 260 260 258 256 252 248 247 244 244 243 243 243 241 241 242 242 241
319 318 315 310 305 299 294 291 289 288 288 287 288 285 282 277 272 269 267 264 261 259 259 259 256 254 250 248 247 246 244 243 243 242 242 242 242 241
324 323 320 316 313 307 300 296 293 294 294 292 291 289 285 280 275 272 270 267 264 262 260 259 257 254 250 249 248 246 244 243 242 241 241 242 242 242
329 327 324 320 316 311 306 302 298 297 297 296 296 294 290 284 278 275 273 270 267 264 262 261 259 255 253 251 249 247 246 245 244 243 242 242 241 242
330 328 326 324 320 316 310 306 303 301 300 300 299 296 292 287 282 278 275 273 271 268 265 263 262 259 257 253 251 250 249 248 246 245 244 243 243 244
331 330 328 325 320 318 312 307 303 301 301 301 299 297 295 292 288 283 278 276 274 272 270 269 265 262 260 255 253 253 252 251 249 246 244 243 243 243
334 333 331 328 325 322 317 310 304 302 304 305 304 301 298 296 292 287 281 277 276 274 271 270 267 263 260 258 254 251 251 250 248 246 244 243 242 242
338 338 337 335 333 330 326 321 313 308 307 308 306 303 300 298 295 290 285 281 279 276 273 271 269 265 262 260 259 255 252 250 249 248 246 244 244 244
341 339 338 336 335 334 331 327 321 316 312 309 308 306 302 300 297 292 288 285 282 279 277 274 272 269 265 262 260 258 256 253 252 250 249 246 246 246
340 339 338 337 337 336 334 331 327 324 320 316 313 309 305 302 299 295 291 288 286 283 280 277 275 272 267 265 263 259 257 254 251 251 250 248 248 247
339 339 339 338 338 338 336 334 332 328 325 322 319 315 311 307 303 299 295 292 292 288 284 279 276 275 272 268 266 262 258 255 253 251 251 250 250 248
341 340 339 338 337 337 336 335 333 330 327 326 325 321 316 313 309 306 302 301 298 293 288 283 278 276 274 272 268 264 260 257 255 254 252 251 249 248
343 342 341 340 338 337 336 335 335 333 330 328 327 325 321 318 316 312 310 309 305 298 295 289 283 278 275 272 268 264 261 258 256 254 252 251 249 248
344 344 343 342 341 339 337 336 336 335 334 332 329 326 322 319 315 313 312 311 308 305 302 297 290 283 278 273 269 266 263 259 256 253 251 251 250 248
344 343 343 343 342 340 338 337 337 337 336 335 332 328 324 319 315 313 314 314 310 307 305 301 295 288 281 275 270 265 264 261 257 254 254 251 250 249
344 343 342 342 342 340 340 339 339 338 339 338 336 333 328 323 318 315 316 316 313 308 306 305 301 293 284 280 276 272 269 265 260 256 254 251 248 248
343 343 343 343 342 342 341 339 338 337 337 339 339 337 334 330 326 323 321 319 318 315 311 308 306 302 295 289 284 279 274 271 266 260 255 251 249 247
340 341 341 342 343 342 341 340 339 338 338 339 340 338 335 333 331 329 328 325 323 321 316 313 310 306 301 297 296 291 283 276 270 265 259 253 252 251
338 339 340 341 342 342 341 340 339 338 337 337 338 337 336 337 337 335 334 331 325 322 320 318 316 313 307 301 300 297 290 283 275 268 263 258 256 254
Height
5714 5712 5710 5708 5706 5704 5703 5702 5701 5699 5699 5697 5696 5695 5694 5694 5693 5693 5693 5694 5695 5696 5697 5699 5701 5703 5706 5709 5711 5714 5717 5720 5724 5727 5731 5734 5738 5742
5708 5705 5703 5701 5699 5697 5695 5693 5692 5691 5689 5688 5687 5686 5685 5684 5683 5683 5683 5684 5685 5686 5687 5688 5690 5692 5694 5697 5700 5702 5706 5709 5712 5716 5719 5723 5727 5731
5701 5699 5696 5694 5692 5689 5687 5686 5684 5682 5681 5680 5678 5677 5676 5674 5674 5673 5674 5674 5675 5676 5676 5677 5678 5681 5682 5685 5688 5691 5694 5697 5701 5705 5708 5712 5716 5720
5696 5693 5690 5687 5685 5683 5681 5679 5677 5675 5674 5672 5671 5669 5667 5666 5665 5665 5665 5665 5666 5666 5666 5667 5668 5669 5671 5673 5676 5679 5683 5686 5690 5693 5697 5701 5705 5708
5691 5687 5684 5681 5678 5676 5674 5672 5670 5668 5666 5665 5663 5661 5659 5658 5657 5656 5656 5656 5656 5656 5657 5657 5658 5659 5661 5663 5665 5668 5671 5675 5678 5682 5685 5689 5693 5697
5686 5682 5679 5675 5672 5670 5668 5666 5664 5662 5659 5657 5655 5653 5651 5649 5649 5648 5648 5647 5648 5647 5647 5648 5648 5649 5650 5652 5655 5657 5660 5662 5666 5669 5673 5677 5681 5685
5681 5678 5674 5670 5667 5664 5662 5660 5658 5655 5653 5650 5648 5646 5644 5642 5641 5640 5639 5639 5639 5638 5639 5639 5639 5639 5640 5641 5643 5645 5647 5650 5653 5657 5661 5665 5669 5673
5677 5674 5670 5666 5662 5659 5656 5654 5652 5649 5647 5644 5642 5639 5637 5635 5633 5632 5631 5631 5630 5630 5629 5629 5629 5629 5629 5630 5632 5634 5636 5639 5642 5645 5649 5652 5657 5661
5674 5670 5666 5661 5657 5654 5651 5648 5646 5643 5641 5638 5635 5632 5629 5627 5626 5624 5623 5622 5621 5620 5620 5619 5619 5619 5619 5619 5621 5622 5625 5627 5630 5633 5637 5640 5644 5649
5670 5666 5661 5657 5653 5649 5646 5643 5640 5637 5635 5632 5629 5626 5622 5620 5618 5616 5614 5613 5612 5611 5610 5610 5609 5609 5610 5610 5611 5612 5614 5616 5619 5622 5625 5629 5632 5636
5667 5662 5657 5653 5648 5644 5641 5638 5635 5632 5628 5625 5622 5619 5616 5613 5610 5608 5606 5605 5603 5602 5601 5600 5600 5600 5600 5600 5601 5601 5603 5604 5607 5610 5613 5617 5620 5624
5663 5658 5654 5649 5644 5640 5636 5632 5629 5626 5622 5619 5616 5612 5609 5605 5602 5600 5598 5596 5595 5593 5592 5591 5590 5590 5591 5591 5591 5591 5592 5593 5595 5598 5601 5604 5607 5611
5660 5655 5650 5645 5640 5636 5631 5627 5623 5620 5616 5612 5609 5606 5602 5598 5595 5592 5589 5587 5586 5584 5583 5581 5581 5580 5580 5581 5581 5581 5581 5582 5584 5587 5589 5592 5595 5599
5657 5652 5647 5642 5637 5632 5627 5623 5618 5614 5610 5606 5602 5599 5595 5592 5588 5585 5582 5579 5577 5575 5574 5572 5572 5571 5570 5571 5571 5571 5571 5572 5573 5576 5578 5581 5583 5586
5653 5648 5643 5638 5633 5628 5623 5618 5614 5609 5605 5601 5596 5593 5589 5585 5581 5578 5574 5571 5569 5567 5565 5563 5563 5562 5561 5561 5561 5561 5562 5562 5563 5565 5567 5570 5572 5575
5650 5645 5640 5635 5630 5625 5620 5614 5610 5605 5600 5596 5591 5586 5582 5578 5574 5571 5568 5564 5562 5560 5557 5555 5554 5553 5552 5552 5551 5551 5552 5553 5554 5555 5557 5559 5561 5563
5647 5642 5637 5632 5626 5621 5616 5611 5605 5600 5595 5590 5586 5581 5577 5573 5569 5565 5562 5558 5555 5553 5550 5548 5546 5545 5544 5544 5543 5543 5543 5544 5545 5546 5547 5549 5551 5553
5645 5639 5634 5628 5623 5617 5612 5607 5602 5596 5591 5586 5581 5576 5572 5568 5564 5560 5556 5553 5550 5547 5544 5541 5539 5538 5537 5537 5536 5535 5535 5536 5537 5537 5538 5540 5542 5544
5642 5636 5631 5625 5619 5614 5608 5603 5598 5593 5587 5581 5576 5571 5567 5563 5559 5555 5551 5548 5544 5541 5538 5536 5534 5532 5531 5531 5530 5529 5528 5528 5529 5529 5530 5532 5534 5536
5639 5633 5628 5622 5616 5611 5605 5599 5594 5588 5583 5577 5572 5566 5562 5557 5553 5549 5545 5542 5539 5536 5533 5531 5528 5527 5525 5525 5524 5523 5522 5522 5522 5522 5523 5524 5526 5527
5636 5631 5625 5619 5613 5607 5601 5596 5590 5584 5578 5573 5567 5562 5557 5552 5548 5544 5540 5537 5533 5531 5528 5526 5523 5521 5520 5519 5518 5517 5516 5515 5515 5515 5516 5517 5518 5520
5633 5628 5622 5616 5610 5604 5598 5592 5586 5580 5574 5569 5563 5558 5553 5548 5543 5539 5535 5532 5529 5526 5524 5521 5519 5517 5515 5514 5513 5511 5510 5509 5509 5508 5509 5510 5511 5513
5630 5625 5619 5612 5606 5600 5594 5588 5582 5576 5570 5565 5559 5554 5549 5544 5539 5535 5531 5528 5525 5522 5520 5517 5515 5513 5511 5510 5508 5507 5506 5505 5504 5504 5504 5504 5505 5506